Location: Silverdale
(47.6506°N, 122.6941°W)
Time: 00:12:27
(UTC+00:00)

A-11 Canister half - Pass Details

Date: 05 October 2022
Orbit: 1524 x 1685 km, 47.3° (Epoch: 05 December)

Event Time Altitude Azimuth Distance (km) Brightness Sun altitude
Rises 02:54:05 0° 279° (W) 4,683 13.7 -12.7°
Reaches altitude 10° 02:57:06 10° 279° (W) 3,709 12.5 -13.2°
Maximum altitude 03:06:28 82° 194° (SSW) 1,580 9.0 -14.7°
Enters shadow 03:13:44 20° 110° (ESE) 3,058 9.9 -15.9°
